| time (UTC) | temp F | wind direction | speed MPH | gust MPH | rain 1hr in | rain 24hr in | rain mn in | humidity % | barometer mb |
| 20260507210438 | 56 | 225 | 3.0 | 3.0 | 0.00 | 0.00 | 0.00 | 43 | 1006.8 |
| 20260507205934 | 56 | 286 | 5.0 | 7.0 | 0.00 | 0.00 | 0.00 | 42 | 1007.0 |
| 20260507205432 | 57 | 236 | 4.0 | 6.0 | 0.00 | 0.00 | 0.00 | 42 | 1006.9 |
| 20260507204928 | 57 | 226 | 5.0 | 8.0 | 0.00 | 0.00 | 0.00 | 43 | 1006.8 |
| 20260507204424 | 57 | 239 | 9.0 | 11.0 | 0.00 | 0.00 | 0.00 | 46 | 1006.7 |
| 20260507203922 | 57 | 261 | 5.0 | 7.0 | 0.00 | 0.00 | 0.00 | 46 | 1006.8 |
| 20260507203420 | 57 | 133 | 3.0 | 3.0 | 0.00 | 0.00 | 0.00 | 41 | 1006.7 |
| 20260507202916 | 57 | 196 | 4.0 | 5.0 | 0.00 | 0.00 | 0.00 | 46 | 1006.8 |
| 20260507202412 | 56 | 29 | 3.0 | 3.0 | 0.00 | 0.00 | 0.00 | 46 | 1006.7 |
| 20260507201908 | 57 | 123 | 0.0 | 1.0 | 0.00 | 0.00 | 0.00 | 48 | 1006.7 |
| 20260507201403 | 56 | 233 | 3.0 | 3.0 | 0.00 | 0.00 | 0.00 | 43 | 1006.8 |
| 20260507200900 | 57 | 229 | 5.0 | 7.0 | 0.00 | 0.00 | 0.00 | 44 | 1006.8 |
| 20260507200356 | 58 | 76 | 1.0 | 1.0 | 0.00 | 0.00 | 0.00 | 44 | 1006.8 |
| 20260507195852 | 58 | 232 | 7.0 | 9.0 | 0.00 | 0.00 | 0.00 | 44 | 1006.8 |
| 20260507195350 | 57 | 169 | 2.0 | 2.0 | 0.00 | 0.00 | 0.00 | 48 | 1007.0 |
| 20260507194847 | 58 | 240 | 3.0 | 3.0 | 0.00 | 0.00 | 0.00 | 44 | 1006.9 |
| 20260507194343 | 58 | 246 | 3.0 | 5.0 | 0.00 | 0.00 | 0.00 | 43 | 1007.1 |
| 20260507193840 | 57 | 82 | 1.0 | 2.0 | 0.00 | 0.00 | 0.00 | 47 | 1007.0 |
| 20260507193337 | 57 | 237 | 3.0 | 3.0 | 0.00 | 0.00 | 0.00 | 47 | 1007.0 |
| 20260507192833 | 57 | 323 | 8.0 | 11.0 | 0.00 | 0.00 | 0.00 | 50 | 1006.9 |
| 20260507192330 | 57 | 226 | 5.0 | 7.0 | 0.00 | 0.00 | 0.00 | 46 | 1007.2 |
| 20260507191826 | 56 | 307 | 3.0 | 3.0 | 0.00 | 0.00 | 0.00 | 44 | 1007.0 |
| 20260507191322 | 56 | 246 | 2.0 | 2.0 | 0.00 | 0.00 | 0.00 | 48 | 1007.1 |
| 20260507190819 | 56 | 54 | 2.0 | 2.0 | 0.00 | 0.00 | 0.00 | 46 | 1007.2 |
| 20260507190318 | 57 | 118 | 1.0 | 1.0 | 0.00 | 0.00 | 0.00 | 46 | 1007.3 |
| 20260507185816 | 58 | 296 | 3.0 | 5.0 | 0.00 | 0.00 | 0.00 | 45 | 1007.4 |
| 20260507185313 | 57 | 297 | 2.0 | 3.0 | 0.00 | 0.00 | 0.00 | 44 | 1007.3 |
| 20260507184810 | 57 | 351 | 3.0 | 6.0 | 0.00 | 0.00 | 0.00 | 49 | 1007.2 |
| 20260507184308 | 57 | 174 | 1.0 | 2.0 | 0.00 | 0.00 | 0.00 | 47 | 1007.2 |
| 20260507183804 | 55 | 272 | 4.0 | 5.0 | 0.00 | 0.00 | 0.00 | 49 | 1007.4 |
| 20260507183301 | 56 | 162 | 2.0 | 2.0 | 0.00 | 0.00 | 0.00 | 48 | 1007.5 |
| 20260507182800 | 56 | 71 | 1.0 | 1.0 | 0.00 | 0.00 | 0.00 | 49 | 1007.5 |
| 20260507182300 | 56 | 241 | 3.0 | 3.0 | 0.00 | 0.00 | 0.00 | 51 | 1007.4 |
| 20260507181756 | 57 | 225 | 3.0 | 5.0 | 0.00 | 0.00 | 0.00 | 49 | 1007.4 |
| 20260507181253 | 57 | 57 | 2.0 | 2.0 | 0.00 | 0.00 | 0.00 | 45 | 1007.4 |
| 20260507180749 | 57 | 212 | 3.0 | 3.0 | 0.00 | 0.00 | 0.00 | 53 | 1007.4 |
| 20260507180246 | 56 | 92 | 2.0 | 3.0 | 0.00 | 0.00 | 0.00 | 52 | 1007.5 |
| 20260507175742 | 58 | 311 | 4.0 | 5.0 | 0.00 | 0.00 | 0.00 | 45 | 1007.5 |
| 20260507175234 | 57 | 219 | 3.0 | 3.0 | 0.00 | 0.00 | 0.00 | 48 | 1007.3 |
| 20260507174731 | 57 | 240 | 5.0 | 6.0 | 0.00 | 0.00 | 0.00 | 51 | 1007.3 |
| 20260507174229 | 58 | 163 | 3.0 | 5.0 | 0.00 | 0.00 | 0.00 | 44 | 1007.3 |
| 20260507173727 | 57 | 41 | 3.0 | 3.0 | 0.00 | 0.00 | 0.00 | 42 | 1007.4 |
| 20260507173223 | 56 | 110 | 3.0 | 5.0 | 0.00 | 0.00 | 0.00 | 52 | 1007.5 |
| 20260507172719 | 55 | 247 | 5.0 | 7.0 | 0.00 | 0.00 | 0.00 | 52 | 1007.5 |
| 20260507172216 | 56 | 97 | 2.0 | 2.0 | 0.00 | 0.00 | 0.00 | 50 | 1007.6 |
| 20260507171711 | 57 | 238 | 5.0 | 7.0 | 0.00 | 0.00 | 0.00 | 51 | 1007.6 |
| 20260507171209 | 56 | 223 | 5.0 | 6.0 | 0.00 | 0.00 | 0.00 | 56 | 1007.5 |
| 20260507170705 | 54 | 63 | 1.0 | 1.0 | 0.00 | 0.00 | 0.00 | 57 | 1007.7 |
| 20260507170202 | 55 | 216 | 3.0 | 3.0 | 0.00 | 0.00 | 0.00 | 60 | 1007.8 |
| 20260507165657 | 55 | 157 | 3.0 | 3.0 | 0.00 | 0.00 | 0.00 | 60 | 1007.7 |
| 20260507165148 | 55 | 210 | 5.0 | 6.0 | 0.00 | 0.00 | 0.00 | 61 | 1008.0 |
| 20260507164644 | 55 | 168 | 4.0 | 6.0 | 0.00 | 0.00 | 0.00 | 65 | 1007.8 |
| 20260507164142 | 53 | 61 | 1.0 | 2.0 | 0.00 | 0.00 | 0.00 | 68 | 1008.0 |
| 20260507163638 | 53 | 221 | 4.0 | 5.0 | 0.00 | 0.00 | 0.00 | 70 | 1007.9 |
| 20260507163137 | 53 | 97 | 1.0 | 1.0 | 0.00 | 0.00 | 0.00 | 70 | 1008.1 |
| 20260507162632 | 54 | 172 | 2.0 | 3.0 | 0.00 | 0.00 | 0.00 | 69 | 1008.1 |
| 20260507162129 | 54 | 239 | 6.0 | 7.0 | 0.00 | 0.00 | 0.00 | 66 | 1007.9 |
| 20260507161625 | 54 | 227 | 3.0 | 3.0 | 0.00 | 0.00 | 0.00 | 63 | 1008.0 |
| 20260507161122 | 53 | 246 | 4.0 | 6.0 | 0.00 | 0.00 | 0.00 | 69 | 1007.8 |
| 20260507160618 | 54 | 249 | 4.0 | 6.0 | 0.00 | 0.00 | 0.00 | 65 | 1007.9 |
| 20260507160115 | 54 | 229 | 5.0 | 6.0 | 0.00 | 0.00 | 0.00 | 63 | 1008.0 |
| 20260507155609 | 54 | 248 | 5.0 | 6.0 | 0.00 | 0.00 | 0.00 | 68 | 1008.0 |
| 20260507155106 | 54 | 241 | 4.0 | 6.0 | 0.00 | 0.00 | 0.00 | 67 | 1008.2 |
| 20260507154603 | 54 | 224 | 7.0 | 8.0 | 0.00 | 0.00 | 0.00 | 67 | 1008.2 |
| 20260507154100 | 53 | 241 | 7.0 | 8.0 | 0.00 | 0.00 | 0.00 | 69 | 1008.4 |
| 20260507153552 | 54 | 245 | 5.0 | 7.0 | 0.00 | 0.00 | 0.00 | 65 | 1008.6 |
| 20260507153048 | 54 | 222 | 3.0 | 3.0 | 0.00 | 0.00 | 0.00 | 67 | 1008.7 |
| 20260507152544 | 54 | 220 | 2.0 | 3.0 | 0.00 | 0.00 | 0.00 | 67 | 1008.5 |
| 20260507152040 | 54 | 169 | 3.0 | 3.0 | 0.00 | 0.00 | 0.00 | 68 | 1008.5 |
| 20260507151536 | 54 | 53 | 3.0 | 5.0 | 0.00 | 0.00 | 0.00 | 66 | 1008.6 |
| 20260507151033 | 54 | 303 | 3.0 | 6.0 | 0.00 | 0.00 | 0.00 | 67 | 1008.6 |
| 20260507150530 | 54 | 176 | 2.0 | 3.0 | 0.00 | 0.00 | 0.00 | 65 | 1008.5 |
| 20260507150022 | 55 | 233 | 3.0 | 5.0 | 0.00 | 0.00 | 0.00 | 66 | 1008.6 |
| 20260507145516 | 54 | 221 | 1.0 | 1.0 | 0.00 | 0.00 | 0.00 | 66 | 1008.4 |
| 20260507145015 | 54 | 231 | 3.0 | 3.0 | 0.00 | 0.00 | 0.00 | 67 | 1008.5 |
| 20260507144511 | 54 | 37 | 3.0 | 5.0 | 0.00 | 0.00 | 0.00 | 66 | 1008.6 |
| 20260507144009 | 53 | 198 | 5.0 | 10.0 | 0.00 | 0.00 | 0.00 | 67 | 1008.4 |
| 20260507143506 | 53 | 229 | 5.0 | 6.0 | 0.00 | 0.00 | 0.00 | 69 | 1008.4 |
| 20260507143003 | 54 | 211 | 8.0 | 10.0 | 0.00 | 0.00 | 0.00 | 63 | 1008.2 |
| 20260507142458 | 54 | 218 | 7.0 | 10.0 | 0.00 | 0.00 | 0.00 | 70 | 1008.2 |
| 20260507141955 | 55 | 259 | 2.0 | 2.0 | 0.00 | 0.00 | 0.00 | 64 | 1008.4 |
| 20260507141451 | 54 | 29 | 3.0 | 3.0 | 0.00 | 0.00 | 0.00 | 68 | 1008.0 |
| 20260507140948 | 54 | 17 | 2.0 | 2.0 | 0.00 | 0.00 | 0.00 | 67 | 1008.1 |
| 20260507140444 | 55 | 233 | 4.0 | 5.0 | 0.00 | 0.00 | 0.00 | 65 | 1008.2 |
| 20260507135942 | 54 | 299 | 2.0 | 2.0 | 0.00 | 0.00 | 0.00 | 62 | 1008.4 |
| 20260507135439 | 54 | 114 | 1.0 | 1.0 | 0.00 | 0.00 | 0.00 | 67 | 1008.5 |
| 20260507134936 | 53 | 42 | 3.0 | 3.0 | 0.00 | 0.00 | 0.00 | 63 | 1008.1 |
| 20260507134432 | 53 | 225 | 4.0 | 6.0 | 0.00 | 0.00 | 0.00 | 65 | 1008.4 |
| 20260507133928 | 54 | 195 | 5.0 | 6.0 | 0.00 | 0.00 | 0.00 | 63 | 1008.4 |
| 20260507133424 | 54 | 131 | 1.0 | 2.0 | 0.00 | 0.00 | 0.00 | 66 | 1008.5 |
| 20260507132917 | 53 | 23 | 2.0 | 3.0 | 0.00 | 0.00 | 0.00 | 64 | 1008.5 |
| 20260507132412 | 53 | 145 | 2.0 | 2.0 | 0.00 | 0.00 | 0.00 | 66 | 1008.6 |
| 20260507131909 | 52 | 258 | 3.0 | 5.0 | 0.00 | 0.00 | 0.00 | 69 | 1008.6 |
| 20260507131407 | 52 | 58 | 1.0 | 1.0 | 0.00 | 0.00 | 0.00 | 68 | 1008.6 |
| 20260507130904 | 53 | 137 | 0.0 | 1.0 | 0.00 | 0.00 | 0.00 | 67 | 1008.7 |
| 20260507130401 | 52 | 7 | 1.0 | 2.0 | 0.00 | 0.00 | 0.00 | 65 | 1008.7 |
| 20260507125900 | 51 | 309 | 2.0 | 2.0 | 0.00 | 0.00 | 0.00 | 68 | 1008.6 |
| 20260507125356 | 51 | 280 | 2.0 | 2.0 | 0.00 | 0.00 | 0.00 | 74 | 1008.6 |
| 20260507124854 | 52 | 125 | 1.0 | 2.0 | 0.00 | 0.00 | 0.00 | 68 | 1008.7 |
| 20260507124350 | 51 | 177 | 1.0 | 2.0 | 0.00 | 0.00 | 0.00 | 72 | 1008.6 |
| 20260507123849 | 52 | 213 | 3.0 | 3.0 | 0.00 | 0.00 | 0.00 | 70 | 1008.7 |
| 20260507123345 | 52 | 84 | 1.0 | 2.0 | 0.00 | 0.00 | 0.00 | 70 | 1008.9 |
| 20260507122842 | 51 | 69 | 1.0 | 1.0 | 0.00 | 0.00 | 0.00 | 76 | 1008.7 |
| 20260507122337 | 52 | 229 | 4.0 | 6.0 | 0.00 | 0.00 | 0.00 | 72 | 1008.8 |
| 20260507121834 | 51 | 56 | 1.0 | 1.0 | 0.00 | 0.00 | 0.00 | 72 | 1008.6 |
| 20260507121329 | 51 | 51 | 1.0 | 2.0 | 0.00 | 0.00 | 0.00 | 74 | 1008.7 |
| 20260507120826 | 52 | 80 | 1.0 | 3.0 | 0.00 | 0.00 | 0.00 | 72 | 1008.8 |
| 20260507120322 | 51 | 108 | 0.0 | 0.0 | 0.00 | 0.00 | 0.00 | 75 | 1008.7 |
| 20260507115819 | 50 | 185 | 3.0 | 3.0 | 0.00 | 0.00 | 0.00 | 76 | 1008.6 |
| 20260507115315 | 50 | 160 | 1.0 | 1.0 | 0.00 | 0.00 | 0.00 | 77 | 1008.7 |
| 20260507114811 | 50 | 107 | 1.0 | 1.0 | 0.00 | 0.00 | 0.00 | 77 | 1008.6 |
| 20260507114308 | 49 | 75 | 0.0 | 1.0 | 0.00 | 0.00 | 0.00 | 83 | 1008.8 |
| 20260507113805 | 48 | 131 | 1.0 | 2.0 | 0.00 | 0.00 | 0.00 | 83 | 1008.9 |
| 20260507113302 | 48 | 173 | 2.0 | 2.0 | 0.00 | 0.00 | 0.00 | 83 | 1008.8 |
| 20260507112800 | 48 | 129 | 0.0 | 1.0 | 0.00 | 0.00 | 0.00 | 84 | 1008.7 |
| 20260507112256 | 47 | 67 | 1.0 | 1.0 | 0.00 | 0.00 | 0.00 | 85 | 1008.6 |
| 20260507111754 | 46 | 41 | 2.0 | 2.0 | 0.00 | 0.00 | 0.00 | 87 | 1008.7 |
| 20260507111245 | 46 | 108 | 1.0 | 1.0 | 0.00 | 0.00 | 0.00 | 88 | 1008.7 |
| 20260507110741 | 45 | 106 | 1.0 | 1.0 | 0.00 | 0.00 | 0.00 | 89 | 1008.6 |
| 20260507110238 | 45 | 75 | 0.0 | 0.0 | 0.00 | 0.00 | 0.00 | 90 | 1008.5 |
| 20260507105735 | 44 | 80 | 0.0 | 0.0 | 0.00 | 0.00 | 0.00 | 90 | 1008.5 |
| 20260507105230 | 45 | 81 | 0.0 | 0.0 | 0.00 | 0.00 | 0.00 | 91 | 1008.7 |
| 20260507104728 | 45 | 74 | 0.0 | 0.0 | 0.00 | 0.00 | 0.00 | 91 | 1008.6 |
| 20260507104225 | 45 | 89 | 0.0 | 0.0 | 0.00 | 0.00 | 0.00 | 91 | 1008.6 |
| 20260507103720 | 44 | 103 | 0.0 | 0.0 | 0.00 | 0.00 | 0.00 | 91 | 1008.7 |
| 20260507103216 | 44 | 144 | 1.0 | 1.0 | 0.00 | 0.00 | 0.00 | 92 | 1008.4 |
| 20260507102713 | 44 | 67 | 1.0 | 1.0 | 0.00 | 0.00 | 0.00 | 92 | 1008.2 |
| 20260507102210 | 44 | 41 | 1.0 | 1.0 | 0.00 | 0.00 | 0.00 | 92 | 1008.6 |
| 20260507101706 | 45 | 101 | 0.0 | 0.0 | 0.00 | 0.00 | 0.00 | 93 | 1008.8 |
| 20260507101201 | 45 | 100 | 0.0 | 1.0 | 0.00 | 0.00 | 0.00 | 93 | 1008.9 |
| 20260507100659 | 45 | 81 | 0.0 | 0.0 | 0.00 | 0.00 | 0.00 | 93 | 1008.6 |
| 20260507100157 | 44 | 91 | 0.0 | 0.0 | 0.00 | 0.00 | 0.00 | 92 | 1008.6 |
| 20260507095655 | 45 | 77 | 0.0 | 0.0 | 0.00 | 0.00 | 0.00 | 92 | 1009.0 |
| 20260507095151 | 45 | 103 | 0.0 | 1.0 | 0.00 | 0.00 | 0.00 | 93 | 1008.8 |
| 20260507094647 | 45 | 75 | 0.0 | 0.0 | 0.00 | 0.00 | 0.00 | 92 | 1008.7 |
| 20260507094144 | 45 | 105 | 0.0 | 0.0 | 0.00 | 0.00 | 0.00 | 93 | 1008.7 |
| 20260507093641 | 45 | 111 | 0.0 | 1.0 | 0.00 | 0.00 | 0.00 | 92 | 1008.6 |
| 20260507093141 | 45 | 72 | 1.0 | 1.0 | 0.00 | 0.00 | 0.00 | 93 | 1008.7 |
| 20260507092636 | 45 | 71 | 1.0 | 1.0 | 0.00 | 0.00 | 0.00 | 93 | 1008.2 |
| 20260507092133 | 45 | 82 | 0.0 | 1.0 | 0.00 | 0.00 | 0.00 | 94 | 1008.5 |
| 20260507091630 | 45 | 172 | 1.0 | 1.0 | 0.00 | 0.00 | 0.00 | 94 | 1008.7 |
| 20260507091126 | 44 | 270 | 2.0 | 3.0 | 0.00 | 0.00 | 0.00 | 93 | 1008.2 |
| 20260507090622 | 45 | 83 | 0.0 | 0.0 | 0.00 | 0.00 | 0.00 | 94 | 1008.1 |
| 20260507090120 | 45 | 99 | 0.0 | 0.0 | 0.00 | 0.00 | 0.00 | 94 | 1008.0 |
| 20260507085616 | 45 | 32 | 2.0 | 2.0 | 0.00 | 0.00 | 0.00 | 93 | 1008.0 |
| 20260507085113 | 45 | 166 | 1.0 | 2.0 | 0.00 | 0.00 | 0.00 | 94 | 1007.9 |
| 20260507084610 | 45 | 98 | 0.0 | 0.0 | 0.00 | 0.00 | 0.00 | 93 | 1008.0 |
| 20260507084106 | 45 | 16 | 1.0 | 2.0 | 0.00 | 0.00 | 0.00 | 93 | 1008.0 |
| 20260507083603 | 45 | 74 | 0.0 | 0.0 | 0.00 | 0.00 | 0.00 | 93 | 1008.2 |
| 20260507083100 | 45 | 80 | 0.0 | 1.0 | 0.00 | 0.00 | 0.00 | 93 | 1008.1 |
| 20260507082555 | 45 | 83 | 0.0 | 0.0 | 0.00 | 0.00 | 0.00 | 93 | 1007.8 |
| 20260507082052 | 45 | 67 | 0.0 | 1.0 | 0.00 | 0.00 | 0.00 | 93 | 1007.9 |
| 20260507081548 | 45 | 110 | 0.0 | 1.0 | 0.00 | 0.00 | 0.00 | 93 | 1008.2 |
| 20260507081045 | 46 | 80 | 1.0 | 1.0 | 0.00 | 0.00 | 0.00 | 93 | 1008.1 |
| 20260507080541 | 46 | 63 | 0.0 | 1.0 | 0.00 | 0.00 | 0.00 | 93 | 1008.2 |
| 20260507080038 | 46 | 84 | 0.0 | 1.0 | 0.00 | 0.00 | 0.00 | 93 | 1008.0 |
| 20260507075533 | 45 | 71 | 0.0 | 0.0 | 0.00 | 0.00 | 0.00 | 92 | 1007.8 |
| 20260507075030 | 45 | 105 | 0.0 | 0.0 | 0.00 | 0.00 | 0.00 | 92 | 1007.6 |
| 20260507074527 | 46 | 73 | 0.0 | 0.0 | 0.00 | 0.00 | 0.00 | 92 | 1007.7 |
| 20260507074026 | 46 | 53 | 1.0 | 2.0 | 0.00 | 0.00 | 0.00 | 92 | 1007.5 |
| 20260507073521 | 46 | 78 | 0.0 | 1.0 | 0.00 | 0.00 | 0.00 | 92 | 1007.9 |
| 20260507073018 | 46 | 335 | 2.0 | 2.0 | 0.00 | 0.00 | 0.00 | 92 | 1007.8 |
| 20260507072515 | 46 | 72 | 1.0 | 2.0 | 0.00 | 0.00 | 0.00 | 92 | 1007.5 |
| 20260507072013 | 46 | 110 | 0.0 | 1.0 | 0.00 | 0.00 | 0.00 | 93 | 1007.5 |
| 20260507071510 | 46 | 315 | 2.0 | 2.0 | 0.00 | 0.00 | 0.00 | 93 | 1007.5 |
| 20260507071006 | 46 | 28 | 2.0 | 2.0 | 0.00 | 0.00 | 0.00 | 94 | 1007.6 |
| 20260507070504 | 46 | 36 | 0.0 | 1.0 | 0.00 | 0.00 | 0.00 | 96 | 1007.6 |
| 20260507070001 | 46 | 83 | 0.0 | 1.0 | 0.00 | 0.00 | 0.00 | 97 | 1007.5 |
| 20260507065457 | 46 | 56 | 1.0 | 1.0 | 0.00 | 0.00 | 0.00 | 97 | 1007.6 |
| 20260507064954 | 46 | 85 | 0.0 | 0.0 | 0.00 | 0.00 | 0.00 | 97 | 1007.6 |
| 20260507064452 | 46 | 77 | 0.0 | 1.0 | 0.00 | 0.00 | 0.00 | 97 | 1007.5 |
| 20260507063950 | 46 | 81 | 0.0 | 0.0 | 0.00 | 0.00 | 0.00 | 97 | 1007.3 |
| 20260507063447 | 47 | 90 | 0.0 | 0.0 | 0.00 | 0.00 | 0.00 | 97 | 1007.8 |
| 20260507062944 | 46 | 74 | 0.0 | 1.0 | 0.00 | 0.00 | 0.00 | 96 | 1007.7 |
| 20260507062441 | 47 | 76 | 0.0 | 1.0 | 0.00 | 0.00 | 0.00 | 96 | 1007.3 |
| 20260507061938 | 47 | 106 | 0.0 | 0.0 | 0.00 | 0.00 | 0.00 | 96 | 1007.5 |
| 20260507061436 | 47 | 163 | 1.0 | 2.0 | 0.00 | 0.00 | 0.00 | 96 | 1007.5 |
| 20260507060934 | 47 | 74 | 1.0 | 1.0 | 0.00 | 0.00 | 0.00 | 96 | 1007.6 |
| 20260507060431 | 48 | 238 | 2.0 | 3.0 | 0.00 | 0.00 | 0.00 | 96 | 1007.5 |
| 20260507055927 | 48 | 107 | 0.0 | 0.0 | 0.00 | 0.00 | 0.00 | 95 | 1007.2 |
| 20260507055422 | 48 | 102 | 0.0 | 0.0 | 0.00 | 0.00 | 0.00 | 96 | 1007.3 |
| 20260507054914 | 48 | 79 | 0.0 | 0.0 | 0.00 | 0.00 | 0.00 | 95 | 1007.3 |
| 20260507054410 | 48 | 93 | 1.0 | 1.0 | 0.00 | 0.00 | 0.00 | 96 | 1007.2 |
| 20260507053908 | 48 | 65 | 1.0 | 1.0 | 0.00 | 0.00 | 0.00 | 96 | 1007.1 |
| 20260507053405 | 48 | 79 | 1.0 | 1.0 | 0.00 | 0.00 | 0.00 | 96 | 1007.1 |
| 20260507052904 | 48 | 106 | 1.0 | 1.0 | 0.00 | 0.00 | 0.00 | 96 | 1007.0 |
| 20260507052400 | 48 | 169 | 1.0 | 1.0 | 0.00 | 0.00 | 0.00 | 97 | 1007.3 |
| 20260507051857 | 49 | 218 | 3.0 | 3.0 | 0.00 | 0.00 | 0.00 | 96 | 1007.4 |
| 20260507051355 | 48 | 130 | 0.0 | 1.0 | 0.00 | 0.00 | 0.00 | 96 | 1007.2 |
| 20260507050852 | 48 | 76 | 0.0 | 1.0 | 0.00 | 0.00 | 0.00 | 96 | 1007.2 |
| 20260507050348 | 48 | 79 | 0.0 | 0.0 | 0.00 | 0.00 | 0.00 | 96 | 1006.9 |
| 20260507045845 | 49 | 111 | 2.0 | 2.0 | 0.00 | 0.00 | 0.00 | 96 | 1006.9 |
| 20260507045341 | 49 | 203 | 3.0 | 3.0 | 0.00 | 0.00 | 0.00 | 96 | 1007.1 |
| 20260507044833 | 49 | 67 | 0.0 | 0.0 | 0.00 | 0.00 | 0.00 | 96 | 1007.3 |
| 20260507044329 | 49 | 152 | 2.0 | 2.0 | 0.00 | 0.00 | 0.00 | 96 | 1007.1 |
| 20260507043825 | 50 | 106 | 0.0 | 1.0 | 0.00 | 0.00 | 0.00 | 96 | 1007.2 |
| 20260507043322 | 50 | 85 | 0.0 | 0.0 | 0.00 | 0.00 | 0.00 | 96 | 1007.2 |
| 20260507042819 | 50 | 209 | 2.0 | 3.0 | 0.00 | 0.00 | 0.00 | 96 | 1007.3 |
| 20260507042314 | 50 | 239 | 4.0 | 5.0 | 0.00 | 0.00 | 0.00 | 96 | 1007.2 |
| 20260507041811 | 50 | 208 | 2.0 | 2.0 | 0.00 | 0.00 | 0.00 | 96 | 1007.1 |
| 20260507041308 | 49 | 179 | 2.0 | 2.0 | 0.00 | 0.00 | 0.00 | 97 | 1007.0 |
| 20260507040805 | 50 | 193 | 2.0 | 2.0 | 0.00 | 0.00 | 0.00 | 97 | 1006.8 |
| 20260507040301 | 50 | 60 | 1.0 | 2.0 | 0.00 | 0.00 | 0.00 | 98 | 1006.8 |
| 20260507035757 | 50 | 113 | 1.0 | 1.0 | 0.00 | 0.20 | 0.20 | 98 | 1007.0 |
| 20260507035252 | 50 | 77 | 0.0 | 1.0 | 0.00 | 0.20 | 0.20 | 98 | 1007.0 |
| 20260507034750 | 51 | 51 | 1.0 | 1.0 | 0.00 | 0.20 | 0.20 | 98 | 1006.9 |
| 20260507034247 | 51 | 102 | 0.0 | 1.0 | 0.00 | 0.20 | 0.20 | 98 | 1006.9 |
| 20260507033746 | 51 | 148 | 1.0 | 1.0 | 0.00 | 0.20 | 0.20 | 97 | 1006.9 |
| 20260507033243 | 51 | 92 | 2.0 | 2.0 | 0.00 | 0.20 | 0.20 | 97 | 1007.1 |
| 20260507032740 | 52 | 220 | 6.0 | 8.0 | 0.00 | 0.20 | 0.20 | 96 | 1006.9 |
| 20260507032236 | 52 | 244 | 6.0 | 8.0 | 0.00 | 0.20 | 0.20 | 95 | 1006.9 |
| 20260507031732 | 53 | 219 | 3.0 | 3.0 | 0.00 | 0.20 | 0.20 | 95 | 1006.8 |
| 20260507031229 | 53 | 245 | 4.0 | 8.0 | 0.00 | 0.20 | 0.20 | 97 | 1006.8 |
| 20260507030726 | 53 | 263 | 7.0 | 9.0 | 0.00 | 0.20 | 0.20 | 98 | 1007.1 |
| 20260507030224 | 53 | 94 | 2.0 | 2.0 | 0.00 | 0.20 | 0.20 | 99 | 1006.7 |
| 20260507025721 | 54 | 102 | 0.0 | 0.0 | 0.00 | 0.20 | 0.20 | 99 | 1006.7 |
| 20260507025218 | 54 | 116 | 0.0 | 0.0 | 0.00 | 0.20 | 0.20 | 99 | 1006.6 |
| 20260507024716 | 54 | 83 | 0.0 | 0.0 | 0.00 | 0.20 | 0.20 | 99 | 1006.5 |
| 20260507024213 | 54 | 158 | 1.0 | 3.0 | 0.00 | 0.20 | 0.20 | 99 | 1006.5 |
| 20260507023708 | 55 | 67 | 1.0 | 1.0 | 0.07 | 0.20 | 0.20 | 99 | 1006.4 |
| 20260507023206 | 55 | 89 | 0.0 | 1.0 | 0.07 | 0.20 | 0.20 | 99 | 1006.5 |
| 20260507022703 | 56 | 91 | 0.0 | 0.0 | 0.00 | 0.19 | 0.19 | 99 | 1006.6 |
| 20260507022158 | 57 | 28 | 3.0 | 3.0 | 0.00 | 0.19 | 0.19 | 99 | 1006.5 |
| 20260507021655 | 57 | 125 | 2.0 | 2.0 | 0.00 | 0.19 | 0.19 | 99 | 1006.3 |
| 20260507021150 | 57 | 245 | 3.0 | 5.0 | 0.00 | 0.19 | 0.19 | 99 | 1006.4 |
| 20260507020649 | 57 | 222 | 5.0 | 6.0 | 0.00 | 0.19 | 0.19 | 99 | 1006.3 |
| 20260507020144 | 57 | 216 | 6.0 | 7.0 | 0.00 | 0.19 | 0.19 | 99 | 1006.2 |
| 20260507015643 | 57 | 237 | 5.0 | 6.0 | 0.00 | 0.19 | 0.19 | 99 | 1006.3 |
| 20260507015140 | 57 | 238 | 5.0 | 6.0 | 0.00 | 0.19 | 0.19 | 99 | 1006.4 |
| 20260507014636 | 57 | 215 | 5.0 | 6.0 | 0.00 | 0.19 | 0.19 | 99 | 1006.3 |
| 20260507014132 | 57 | 237 | 6.0 | 7.0 | 0.00 | 0.19 | 0.19 | 99 | 1006.5 |
| 20260507013630 | 57 | 234 | 6.0 | 7.0 | 0.00 | 0.19 | 0.19 | 99 | 1006.4 |
| 20260507013126 | 57 | 218 | 5.0 | 7.0 | 0.00 | 0.19 | 0.19 | 99 | 1006.2 |
| 20260507012624 | 57 | 222 | 6.0 | 7.0 | 0.00 | 0.19 | 0.19 | 99 | 1006.4 |
| 20260507012119 | 57 | 229 | 7.0 | 8.0 | 0.00 | 0.19 | 0.19 | 99 | 1006.4 |
| 20260507011618 | 57 | 231 | 7.0 | 8.0 | 0.00 | 0.19 | 0.19 | 99 | 1006.4 |
| 20260507011113 | 57 | 228 | 5.0 | 8.0 | 0.00 | 0.19 | 0.19 | 99 | 1006.4 |
| 20260507010609 | 57 | 216 | 5.0 | 6.0 | 0.00 | 0.19 | 0.19 | 99 | 1006.3 |
| 20260507010104 | 57 | 209 | 3.0 | 3.0 | 0.00 | 0.19 | 0.19 | 99 | 1006.5 |
| 20260507005602 | 57 | 194 | 3.0 | 5.0 | 0.00 | 0.19 | 0.19 | 99 | 1006.4 |
| 20260507005058 | 57 | 236 | 4.0 | 5.0 | 0.00 | 0.19 | 0.19 | 99 | 1006.4 |
| 20260507004555 | 57 | 197 | 4.0 | 5.0 | 0.00 | 0.19 | 0.19 | 99 | 1006.6 |
| 20260507004053 | 57 | 223 | 4.0 | 5.0 | 0.00 | 0.19 | 0.19 | 99 | 1006.3 |
| 20260507003548 | 57 | 227 | 5.0 | 6.0 | 0.00 | 0.19 | 0.19 | 99 | 1006.6 |
| 20260507003043 | 57 | 238 | 5.0 | 5.0 | 0.00 | 0.19 | 0.19 | 99 | 1006.6 |
| 20260507002540 | 57 | 211 | 6.0 | 7.0 | 0.00 | 0.19 | 0.19 | 99 | 1006.5 |
| 20260507002036 | 57 | 165 | 4.0 | 5.0 | 0.00 | 0.19 | 0.19 | 99 | 1006.3 |
| 20260507001533 | 57 | 162 | 3.0 | 5.0 | 0.00 | 0.19 | 0.19 | 99 | 1006.3 |
| 20260507001031 | 57 | 231 | 7.0 | 7.0 | 0.00 | 0.19 | 0.19 | 99 | 1006.3 |
| 20260507000527 | 57 | 225 | 4.0 | 7.0 | 0.00 | 0.19 | 0.19 | 99 | 1006.3 |
| 20260507000023 | 57 | 209 | 5.0 | 6.0 | 0.00 | 0.19 | 0.19 | 99 | 1006.2 |
| 20260506235520 | 57 | 202 | 5.0 | 6.0 | 0.00 | 0.19 | 0.19 | 99 | 1006.1 |
| 20260506235015 | 57 | 193 | 6.0 | 7.0 | 0.00 | 0.19 | 0.19 | 99 | 1006.2 |
| 20260506234513 | 57 | 233 | 5.0 | 6.0 | 0.00 | 0.19 | 0.19 | 99 | 1006.2 |
| 20260506234010 | 57 | 206 | 7.0 | 9.0 | 0.00 | 0.19 | 0.19 | 99 | 1006.4 |
| 20260506233507 | 57 | 202 | 7.0 | 8.0 | 0.00 | 0.19 | 0.19 | 99 | 1006.4 |
| 20260506233004 | 57 | 209 | 6.0 | 7.0 | 0.00 | 0.19 | 0.19 | 99 | 1006.4 |
| 20260506232500 | 57 | 191 | 5.0 | 7.0 | 0.00 | 0.19 | 0.19 | 99 | 1006.4 |
| 20260506231955 | 57 | 200 | 8.0 | 10.0 | 0.00 | 0.19 | 0.19 | 99 | 1006.3 |
| 20260506231453 | 57 | 233 | 5.0 | 6.0 | 0.00 | 0.19 | 0.19 | 99 | 1006.5 |
| 20260506230950 | 57 | 233 | 6.0 | 7.0 | 0.00 | 0.19 | 0.19 | 99 | 1006.4 |
| 20260506230445 | 57 | 199 | 9.0 | 10.0 | 0.00 | 0.19 | 0.19 | 98 | 1006.5 |
| 20260506225937 | 57 | 222 | 5.0 | 6.0 | 0.00 | 0.19 | 0.19 | 98 | 1006.4 |
| 20260506225435 | 57 | 220 | 5.0 | 7.0 | 0.00 | 0.19 | 0.19 | 98 | 1006.6 |
| 20260506224931 | 57 | 180 | 5.0 | 6.0 | 0.00 | 0.19 | 0.19 | 98 | 1006.3 |
| 20260506224429 | 57 | 204 | 8.0 | 8.0 | 0.00 | 0.19 | 0.19 | 99 | 1006.5 |
| 20260506223925 | 57 | 218 | 5.0 | 7.0 | 0.00 | 0.19 | 0.19 | 99 | 1006.4 |
| 20260506223420 | 57 | 215 | 7.0 | 9.0 | 0.00 | 0.19 | 0.19 | 99 | 1006.5 |
| 20260506222918 | 58 | 200 | 7.0 | 9.0 | 0.00 | 0.19 | 0.19 | 99 | 1006.6 |
| 20260506222414 | 58 | 217 | 7.0 | 11.0 | 0.00 | 0.19 | 0.19 | 99 | 1006.6 |
| 20260506221912 | 58 | 245 | 2.0 | 3.0 | 0.00 | 0.19 | 0.19 | 99 | 1006.6 |
| 20260506221409 | 58 | 206 | 4.0 | 7.0 | 0.00 | 0.19 | 0.19 | 99 | 1006.7 |
| 20260506220906 | 58 | 233 | 4.0 | 6.0 | 0.00 | 0.19 | 0.19 | 99 | 1006.7 |
| 20260506220402 | 58 | 222 | 4.0 | 5.0 | 0.00 | 0.19 | 0.19 | 99 | 1006.8 |
| 20260506215859 | 58 | 222 | 7.0 | 9.0 | 0.00 | 0.19 | 0.19 | 99 | 1006.8 |
| 20260506215354 | 58 | 209 | 5.0 | 7.0 | 0.00 | 0.19 | 0.19 | 99 | 1006.8 |
| 20260506214850 | 58 | 248 | 5.0 | 6.0 | 0.00 | 0.19 | 0.19 | 99 | 1006.9 |
| 20260506214347 | 58 | 116 | 4.0 | 6.0 | 0.00 | 0.19 | 0.19 | 99 | 1007.1 |
| 20260506213845 | 58 | 229 | 3.0 | 5.0 | 0.00 | 0.19 | 0.19 | 99 | 1007.0 |
| 20260506213342 | 58 | 217 | 4.0 | 6.0 | 0.00 | 0.19 | 0.19 | 99 | 1007.1 |
| 20260506212839 | 58 | 214 | 7.0 | 10.0 | 0.00 | 0.19 | 0.19 | 99 | 1007.0 |
| 20260506212336 | 59 | 125 | 4.0 | 5.0 | 0.00 | 0.19 | 0.19 | 99 | 1007.1 |
| 20260506211830 | 59 | 191 | 5.0 | 6.0 | 0.00 | 0.19 | 0.19 | 99 | 1007.1 |
| 20260506211327 | 59 | 226 | 3.0 | 3.0 | 0.05 | 0.19 | 0.19 | 99 | 1007.2 |